Temp
72 73 72 73 72 74 73 72 72 73 73 74 75 76 76 76 75 77 78 73 72 73 75 76 77 76 76 74 72 72 72 73 72 72 72 72 73 73 74 73 73 73 72
71 73 72 72 72 72 72 72 72 72 73 72 72 73 74 74 74 75 78 78 72 72 73 75 77 76 77 74 73 72 71 71 71 71 71 71 72 73 74 73 73 72 72
70 70 71 70 70 69 68 71 71 71 71 71 71 73 74 73 75 74 76 77 78 72 73 75 76 76 76 75 74 73 72 71 71 70 70 70 72 72 73 73 72 72 71
71 70 71 71 71 70 71 71 70 70 70 70 68 70 71 73 74 74 76 76 78 79 77 74 75 75 75 75 74 74 72 70 69 70 70 71 71 72 72 72 72 72 71
71 71 70 71 69 70 70 69 69 69 67 67 68 70 72 73 73 76 75 74 76 78 80 75 73 73 73 74 75 74 72 71 71 70 70 71 72 72 72 72 72 71 71
71 70 64 66 68 68 69 68 67 68 67 68 68 69 71 73 74 72 74 74 72 76 78 79 75 72 70 73 75 74 73 72 70 70 70 71 71 72 71 71 71 71 70
72 67 66 67 67 67 68 67 67 66 65 67 65 62 66 69 70 71 73 73 70 73 74 79 70 66 70 70 71 73 72 71 71 70 70 71 71 71 71 71 71 70 70
71 68 67 63 65 66 66 66 66 65 65 67 64 65 63 66 69 69 71 70 70 73 71 75 74 71 71 70 69 71 72 71 71 71 71 70 70 70 71 71 71 70 69
70 66 67 67 68 68 66 66 66 66 64 65 68 66 65 65 64 69 69 71 70 68 70 69 72 71 70 69 69 70 70 70 72 73 71 70 69 71 71 71 70 70 69
71 66 68 69 69 68 66 67 69 69 66 65 66 71 70 71 65 60 65 67 68 65 67 68 69 68 68 68 70 69 68 69 73 72 71 69 71 72 71 70 70 69 69
70 70 70 69 69 69 68 68 67 68 69 66 66 66 67 71 72 66 59 60 63 65 65 65 65 66 66 66 66 67 66 68 68 68 69 71 72 72 71 70 70 70 69
67 70 70 70 69 69 69 69 69 69 69 68 68 67 68 68 65 66 63 60 60 62 64 66 65 65 65 66 66 65 65 65 64 65 67 69 70 71 71 71 70 70 70
66 69 69 69 69 69 69 69 69 69 69 68 68 67 68 64 65 69 68 60 59 61 61 64 64 64 65 64 65 66 65 63 62 62 64 66 68 68 69 70 70 71 71
70 69 69 70 70 70 70 69 71 71 69 70 69 67 68 69 69 69 67 64 59 60 61 60 64 64 63 64 65 65 64 62 61 61 62 63 64 66 66 67 68 68 69
69 69 70 70 70 71 70 69 70 68 69 67 63 62 65 68 70 68 68 66 62 57 58 60 60 63 64 64 65 65 65 62 62 60 60 61 62 63 63 64 64 65 65
69 70 70 70 70 70 70 69 69 69 68 66 66 66 66 67 68 69 67 65 64 60 57 61 61 62 64 64 65 64 64 62 60 59 60 60 60 60 61 61 62 63 63
70 70 70 70 69 65 66 66 67 67 65 65 66 65 65 66 66 66 67 65 64 61 59 60 62 63 63 63 63 63 64 62 61 59 60 59 58 59 59 60 60 60 60
71 70 71 71 65 64 65 66 65 67 67 64 65 63 64 66 66 63 63 66 64 64 62 59 61 61 62 62 62 62 62 63 65 60 59 58 58 58 57 57 56 56 55
70 70 71 68 64 64 66 67 66 66 66 66 65 65 65 66 64 62 62 64 64 64 62 61 60 61 61 61 60 61 62 62 65 61 58 58 57 57 56 55 55 54 52
70 69 70 68 64 65 66 66 66 66 65 65 66 69 68 67 67 66 63 64 63 62 62 60 60 59 60 60 60 59 58 62 64 69 60 60 60 56 55 55 55 54 51
70 71 70 68 64 64 65 66 66 65 66 65 65 65 66 66 61 61 64 63 62 61 60 60 59 58 58 59 58 59 60 62 65 71 69 69 69 68 65 57 55 53 51
70 70 70 69 64 62 50 55 62 65 65 66 62 64 62 59 56 54 55 56 61 61 60 59 59 58 59 59 58 60 64 66 64 70 67 66 68 65 64 61 50 49 48
69 69 68 69 63 61 49 51 55 67 66 64 64 63 61 63 64 64 53 54 53 53 56 62 59 60 59 60 64 65 67 69 67 68 68 61 65 63 64 57 48 47 47
69 64 63 63 62 59 47 48 53 67 64 66 66 64 62 67 62 66 63 63 66 62 63 64 62 63 69 70 70 71 68 64 66 68 70 62 65 61 62 58 47 47 46
68 63 62 61 59 54 46 48 57 64 63 64 66 65 67 68 48 52 63 61 62 61 51 47 48 50 48 52 62 72 69 70 67 67 69 67 65 62 63 62 56 46 45
69 71 64 62 55 58 45 48 57 62 60 60 64 64 52 58 46 51 69 68 66 65 66 66 65 58 60 55 55 72 72 69 68 66 65 65 64 64 60 62 62 63 60
MSLP
1012.28 1012.48 1012.59 1012.64 1012.72 1012.63 1012.62 1012.59 1012.54 1012.40 1012.33 1012.24 1012.20 1012.21 1012.33 1012.67 1013.06 1013.28 1013.45 1013.82 1013.97 1013.85 1013.66 1013.50 1013.59 1013.83 1014.38 1015.19 1016.08 1016.42 1017.54 1017.79 1018.82 1019.41 1019.72 1020.30 1020.26 1020.45 1021.03 1021.47 1021.78 1022.05 1022.17
1012.07 1012.23 1012.33 1012.35 1012.35 1012.50 1012.54 1012.48 1012.36 1012.37 1012.18 1012.23 1012.21 1012.19 1012.40 1012.65 1012.86 1013.12 1013.09 1013.04 1013.47 1013.38 1013.30 1013.25 1013.28 1013.57 1014.03 1014.90 1015.49 1016.02 1016.23 1018.03 1018.53 1019.76 1020.25 1020.54 1020.60 1020.82 1021.30 1021.83 1022.14 1022.52 1022.60
1011.79 1012.00 1011.99 1011.95 1011.90 1012.32 1012.50 1012.31 1012.23 1012.23 1012.16 1012.08 1012.01 1012.06 1012.16 1012.41 1012.55 1012.78 1012.82 1012.63 1012.68 1013.00 1012.93 1012.88 1012.95 1013.24 1013.70 1014.35 1015.28 1016.25 1016.37 1017.35 1019.06 1019.68 1020.28 1020.59 1020.80 1021.09 1021.66 1022.11 1022.47 1022.78 1022.79
1011.36 1011.46 1011.43 1011.33 1011.39 1011.75 1011.88 1011.95 1011.96 1011.93 1011.81 1011.81 1011.98 1012.06 1012.15 1012.24 1012.32 1012.42 1012.45 1012.50 1012.28 1012.25 1012.23 1012.59 1012.73 1013.07 1013.42 1013.98 1014.86 1015.65 1016.44 1017.43 1018.79 1019.58 1020.21 1020.44 1020.77 1021.33 1021.85 1022.38 1022.78 1022.87 1023.31
1010.85 1010.92 1010.91 1010.96 1011.22 1011.37 1011.64 1011.72 1011.75 1011.69 1011.62 1011.72 1011.77 1011.88 1012.06 1012.12 1012.20 1012.06 1012.25 1012.24 1012.21 1012.27 1012.15 1012.48 1012.56 1013.43 1013.61 1014.16 1014.76 1015.83 1016.81 1017.00 1018.74 1019.68 1020.12 1020.46 1020.97 1021.54 1022.20 1022.74 1022.82 1023.34 1023.72
1010.31 1010.39 1010.76 1010.90 1011.09 1011.19 1011.32 1011.55 1011.50 1011.50 1011.45 1011.39 1011.57 1011.76 1011.93 1012.01 1012.11 1012.25 1012.11 1012.33 1012.50 1012.43 1012.20 1011.98 1012.87 1013.60 1012.42 1014.14 1014.72 1015.93 1016.82 1017.57 1018.67 1019.63 1020.08 1020.60 1021.16 1021.77 1022.37 1022.78 1023.29 1023.82 1023.69
1009.70 1010.16 1010.44 1010.71 1010.98 1011.02 1011.00 1011.14 1011.14 1011.13 1011.21 1011.35 1011.55 1011.96 1012.07 1012.08 1012.08 1012.20 1012.14 1012.28 1012.53 1012.53 1012.33 1011.93 1013.25 1013.90 1013.97 1012.35 1014.51 1016.12 1016.93 1017.56 1018.74 1019.55 1020.26 1020.85 1021.51 1021.99 1022.39 1022.80 1023.64 1023.99 1024.09
1009.40 1009.82 1010.08 1010.48 1010.61 1010.68 1010.76 1010.81 1010.92 1010.92 1011.06 1011.13 1011.01 1011.19 1011.39 1011.78 1011.90 1012.11 1012.18 1012.35 1012.62 1012.53 1012.53 1012.37 1012.72 1013.31 1014.09 1014.22 1014.57 1015.99 1016.92 1017.75 1018.68 1019.49 1020.26 1020.79 1021.69 1022.20 1022.40 1023.20 1023.88 1024.36 1024.43
1009.19 1009.57 1009.80 1010.04 1010.18 1010.24 1010.20 1010.47 1010.67 1010.65 1010.63 1011.02 1010.93 1010.70 1010.55 1010.41 1011.51 1011.90 1012.00 1012.27 1012.74 1012.85 1012.75 1012.77 1012.85 1013.31 1013.93 1014.74 1015.60 1016.33 1017.13 1017.80 1018.73 1019.48 1020.34 1021.28 1021.84 1022.10 1022.98 1023.68 1023.99 1024.33 1024.47
1008.98 1009.28 1009.38 1009.67 1009.81 1009.86 1010.06 1010.23 1010.45 1010.37 1010.55 1010.55 1010.97 1010.59 1010.31 1010.27 1010.66 1011.64 1012.24 1012.52 1012.86 1013.10 1013.05 1013.19 1013.47 1013.93 1014.50 1015.21 1015.81 1016.30 1017.20 1017.61 1018.70 1019.87 1020.66 1021.20 1021.55 1022.47 1023.18 1023.61 1023.98 1024.36 1024.56
1008.97 1009.15 1009.25 1009.42 1009.58 1009.76 1009.97 1010.12 1010.30 1010.39 1010.28 1010.33 1010.30 1010.37 1010.42 1010.51 1010.53 1010.90 1012.00 1012.68 1013.04 1013.25 1013.48 1013.65 1013.92 1014.45 1014.92 1015.58 1015.91 1016.21 1017.33 1018.22 1019.35 1020.41 1020.85 1021.36 1021.98 1022.65 1023.17 1023.48 1023.92 1024.31 1024.66
1008.94 1008.98 1009.08 1009.18 1009.45 1009.60 1009.77 1009.89 1010.07 1010.25 1010.16 1010.22 1010.26 1010.40 1010.31 1010.45 1010.82 1010.84 1011.56 1012.56 1012.98 1013.48 1013.74 1014.16 1014.41 1014.55 1015.19 1015.81 1016.27 1017.04 1018.16 1018.86 1019.81 1020.66 1021.16 1021.66 1022.09 1022.64 1022.99 1023.44 1023.95 1024.30 1024.58
1008.71 1008.86 1009.01 1009.08 1009.28 1009.44 1009.62 1009.74 1009.95 1010.06 1010.15 1010.13 1010.20 1010.30 1010.48 1010.61 1010.61 1010.84 1011.29 1012.36 1012.82 1013.63 1014.03 1014.47 1014.56 1014.67 1015.39 1016.17 1016.70 1017.57 1018.77 1019.67 1020.31 1020.90 1021.30 1021.78 1022.19 1022.64 1022.95 1023.55 1023.92 1024.24 1024.49
1008.53 1008.89 1008.95 1009.14 1009.20 1009.30 1009.48 1009.61 1009.70 1009.87 1010.14 1010.17 1010.17 1010.49 1010.59 1010.63 1010.71 1011.00 1011.42 1011.95 1012.84 1013.56 1013.97 1014.05 1014.72 1015.27 1015.53 1016.39 1017.15 1018.23 1019.18 1020.01 1020.52 1020.93 1021.59 1021.97 1022.42 1022.74 1023.21 1023.60 1023.99 1024.19 1024.47
1008.68 1008.86 1009.02 1009.17 1009.17 1009.29 1009.52 1009.66 1009.68 1009.89 1010.08 1010.38 1010.65 1010.81 1010.94 1011.01 1011.14 1011.32 1011.44 1011.90 1012.35 1013.39 1013.92 1014.32 1014.96 1015.56 1016.04 1016.68 1017.82 1018.85 1019.60 1020.27 1020.84 1021.39 1021.77 1022.10 1022.67 1023.04 1023.25 1023.69 1024.04 1024.36 1024.70
1008.74 1008.89 1009.09 1009.23 1009.26 1009.37 1009.64 1009.73 1009.84 1009.90 1010.09 1010.55 1010.72 1010.77 1010.97 1011.15 1011.48 1011.69 1011.81 1012.35 1012.50 1013.18 1014.02 1014.57 1014.81 1015.43 1016.64 1017.48 1018.37 1019.26 1020.01 1020.74 1021.28 1021.74 1022.13 1022.71 1022.88 1023.17 1023.34 1023.82 1024.20 1024.45 1024.81
1008.75 1008.97 1009.12 1009.22 1009.48 1009.77 1009.98 1009.96 1010.04 1010.18 1010.38 1010.60 1010.72 1010.91 1011.17 1011.42 1011.67 1012.16 1012.40 1012.71 1013.12 1013.55 1014.09 1015.20 1015.37 1016.48 1017.15 1018.04 1018.95 1019.78 1020.49 1021.07 1021.80 1022.16 1022.52 1022.82 1023.12 1023.34 1023.72 1024.18 1024.43 1024.47 1024.68
1008.82 1009.08 1009.25 1009.34 1009.85 1010.04 1010.12 1010.08 1010.27 1010.35 1010.39 1010.63 1010.91 1011.14 1011.38 1011.69 1012.07 1012.62 1012.62 1012.90 1013.30 1013.61 1014.27 1015.25 1016.25 1017.03 1017.67 1018.63 1019.21 1020.19 1021.01 1021.60 1021.81 1022.35 1022.62 1023.10 1023.33 1023.59 1023.89 1024.26 1024.48 1024.62 1024.62
1008.78 1009.14 1009.30 1009.62 1010.02 1010.23 1010.26 1010.31 1010.51 1010.76 1010.85 1010.96 1011.23 1011.45 1011.62 1011.97 1012.30 1012.84 1013.10 1013.26 1013.72 1014.21 1014.81 1015.58 1016.41 1017.44 1018.40 1019.13 1019.88 1020.61 1021.30 1021.78 1022.01 1022.63 1023.11 1023.29 1023.63 1023.70 1023.98 1024.17 1024.35 1024.54 1024.83
1008.87 1009.21 1009.54 1009.95 1010.30 1010.45 1010.59 1010.73 1010.90 1011.04 1011.26 1011.40 1011.50 1011.56 1011.92 1012.23 1012.41 1012.83 1013.39 1013.72 1014.19 1014.63 1015.34 1016.08 1016.88 1017.78 1018.52 1019.52 1020.16 1020.65 1021.52 1021.88 1022.23 1022.50 1023.19 1023.35 1023.63 1024.09 1024.07 1024.49 1024.84 1025.24 1025.26
1008.97 1009.34 1009.74 1010.24 1010.79 1010.97 1011.11 1011.11 1011.26 1011.40 1011.51 1011.74 1012.02 1012.26 1012.47 1012.61 1012.99 1013.40 1013.69 1014.10 1014.52 1015.09 1015.72 1016.19 1017.19 1018.07 1018.76 1019.56 1020.23 1020.88 1021.16 1021.61 1022.14 1022.11 1022.76 1023.21 1023.59 1024.23 1024.74 1025.22 1025.60 1025.58 1025.95
1009.24 1009.44 1009.78 1010.30 1010.96 1011.35 1011.53 1011.57 1011.67 1011.76 1011.91 1012.02 1012.43 1012.84 1013.24 1013.51 1013.75 1013.95 1014.15 1014.52 1014.93 1015.36 1015.94 1016.64 1017.35 1018.11 1018.84 1019.45 1020.17 1020.56 1020.93 1021.01 1021.64 1022.51 1022.86 1023.67 1024.11 1024.61 1025.31 1026.01 1026.74 1026.36 1026.71
1009.58 1009.78 1010.17 1010.48 1011.23 1011.80 1012.02 1012.10 1012.12 1012.04 1012.20 1012.50 1012.72 1013.12 1013.64 1014.00 1014.20 1014.65 1014.89 1015.27 1015.66 1016.05 1016.38 1016.60 1017.20 1017.89 1018.57 1019.08 1019.53 1020.09 1020.37 1020.65 1021.23 1022.40 1022.85 1023.83 1024.58 1025.25 1025.96 1027.07 1026.92 1027.04 1027.03
1009.79 1010.31 1010.68 1011.06 1011.51 1012.15 1012.40 1012.47 1012.46 1012.41 1012.64 1012.80 1013.07 1013.49 1013.93 1014.07 1014.79 1014.95 1015.24 1015.78 1016.09 1016.79 1017.21 1017.16 1017.36 1017.73 1018.04 1018.66 1019.04 1019.42 1020.32 1021.23 1022.10 1022.66 1022.47 1023.44 1024.68 1025.25 1026.07 1027.01 1027.44 1027.42 1027.54
1009.91 1010.45 1010.88 1011.25 1011.76 1012.48 1012.61 1012.74 1012.69 1012.75 1012.91 1013.12 1013.49 1013.93 1014.18 1014.65 1015.24 1015.41 1015.83 1016.19 1016.84 1017.51 1018.00 1018.01 1018.23 1018.50 1018.85 1019.33 1019.33 1019.62 1020.19 1020.37 1021.16 1022.23 1022.81 1022.90 1024.01 1024.79 1025.29 1026.20 1027.26 1027.83 1027.69
1009.94 1010.27 1011.06 1011.61 1012.10 1012.61 1012.81 1012.84 1012.96 1013.00 1013.22 1013.60 1013.95 1014.49 1014.99 1015.32 1015.75 1016.09 1016.09 1016.28 1016.57 1017.18 1017.46 1018.05 1018.77 1019.14 1019.37 1020.13 1020.02 1019.45 1019.78 1019.92 1020.75 1021.83 1022.81 1022.74 1023.47 1024.04 1024.66 1025.71 1026.19 1026.65 1026.60
Wind_Speed
7 7 7 7 6 6 5 5 5 6 6 7 8 9 10 10 8 5 5 10 12 12 12 13 13 16 17 19 23 22 17 18 15 11 11 13 16 17 17 16 15 15 16
7 7 7 7 7 6 5 6 5 5 6 6 8 8 9 8 7 8 6 7 11 12 12 13 13 18 22 28 27 29 28 18 16 13 12 14 14 16 16 15 15 15 16
9 9 8 8 8 6 7 5 5 5 5 5 7 6 6 7 6 7 7 6 6 11 12 11 13 20 27 28 28 27 25 25 19 17 16 17 16 15 16 15 16 16 17
10 9 8 7 6 6 5 5 5 5 6 6 5 5 5 5 6 6 6 6 6 5 6 10 14 23 28 29 28 27 28 26 20 18 19 19 17 16 15 17 17 17 16
10 8 6 6 6 6 5 5 5 6 5 5 5 4 4 4 5 4 7 6 5 5 4 6 13 21 24 27 28 28 27 27 23 19 21 20 18 17 15 16 17 17 16
9 7 4 5 6 6 5 5 6 5 5 5 5 4 3 3 4 3 5 2 2 3 4 5 8 5 14 23 27 28 27 26 23 21 20 19 18 18 17 16 15 15 16
8 6 5 6 6 6 6 6 6 7 5 5 5 3 2 2 3 1 2 1 2 1 2 4 9 5 8 18 25 26 27 26 24 23 19 18 17 17 17 16 14 13 14
5 6 6 5 7 5 7 7 8 5 4 6 4 5 4 4 4 3 4 3 4 4 4 6 10 10 9 10 17 25 28 29 26 25 20 18 17 17 16 15 14 14 13
5 5 7 6 7 6 6 7 8 9 6 4 4 2 5 4 5 1 4 5 4 3 4 5 11 10 9 9 16 22 27 26 28 25 23 20 19 17 16 16 15 12 12
2 5 7 7 6 4 4 6 7 7 6 7 4 2 1 4 4 4 3 4 4 4 5 5 8 9 9 9 15 22 23 27 27 24 23 20 19 18 17 16 14 12 11
3 5 6 6 5 4 6 7 8 8 6 6 4 3 4 3 3 3 4 3 3 4 5 6 7 8 9 9 6 16 23 25 24 21 19 18 19 19 17 15 13 11 10
3 5 5 5 4 5 6 7 8 8 6 4 5 4 3 3 3 3 5 3 4 2 6 6 6 7 8 6 15 26 19 21 18 14 13 15 16 16 16 14 12 11 9
4 5 4 4 4 5 6 6 7 7 6 5 6 4 2 2 1 2 6 3 2 2 2 5 5 7 10 10 14 21 21 16 14 12 12 10 13 13 13 12 11 10 8
4 5 4 3 4 5 5 6 5 5 4 2 5 4 2 1 3 5 6 8 5 2 3 2 6 8 8 12 15 20 12 13 13 11 12 11 11 11 10 9 7 7 4
5 5 5 4 4 5 5 5 4 5 5 5 4 2 2 2 3 5 7 6 4 3 2 3 3 11 10 11 15 11 11 13 11 10 11 10 8 8 9 7 6 4 2
6 6 5 4 4 5 5 5 5 5 5 4 4 5 5 6 6 6 6 5 5 4 3 2 5 14 12 10 14 11 10 11 10 8 8 8 8 7 7 6 6 3 1
6 6 6 5 5 5 5 4 5 5 6 6 6 6 7 8 6 6 5 5 6 7 8 5 9 14 12 14 11 10 9 7 5 8 8 7 7 7 6 5 3 1 1
6 6 6 5 5 5 5 6 6 5 6 6 6 7 8 8 9 6 3 7 8 7 11 14 11 9 11 12 12 11 7 5 5 7 7 7 6 5 4 3 3 3 5
8 7 6 6 7 7 7 6 6 6 5 6 7 7 8 10 9 6 5 7 7 7 10 11 9 7 8 9 8 7 6 4 4 7 6 6 7 6 6 7 6 8 10
8 7 7 8 7 7 7 7 7 7 7 7 6 7 9 9 11 11 7 9 9 8 10 10 10 8 5 7 7 7 4 3 6 6 10 10 10 12 12 13 16 16 16
7 7 8 9 8 7 5 8 8 7 8 8 8 7 6 7 11 7 6 8 10 9 8 9 8 8 6 7 9 3 5 5 6 6 8 7 9 9 10 16 19 19 18
8 8 7 8 7 5 8 8 8 7 7 8 8 8 9 12 11 12 12 10 8 11 10 8 8 9 8 5 5 7 8 9 7 6 9 9 9 10 9 10 14 18 16
7 7 6 8 8 8 7 9 8 7 7 8 8 9 7 7 12 13 12 15 14 14 10 9 13 10 9 7 10 10 8 7 8 8 10 9 8 10 9 10 16 15 14
7 6 5 6 8 6 7 8 6 8 7 8 9 9 10 13 9 13 10 10 13 9 6 4 7 9 9 11 11 9 9 10 9 7 7 8 8 9 9 9 11 12 11
6 5 6 7 7 5 5 9 7 6 7 9 10 9 12 13 7 11 9 9 8 7 8 11 11 9 12 10 8 9 9 9 8 6 2 9 8 8 6 6 8 10 9
8 8 9 7 8 6 3 7 6 4 6 6 8 10 10 10 10 6 8 9 9 8 9 10 9 11 10 8 7 2 8 6 7 6 5 4 9 8 6 5 4 3 5
Wind_Direction
240 242 247 246 244 247 247 252 255 260 254 246 231 225 215 216 223 239 242 245 256 253 259 262 244 208 187 154 135 124 129 126 134 153 146 173 157 144 136 131 129 132 128
240 250 245 239 242 237 242 245 248 253 246 236 223 214 213 216 229 241 236 247 250 255 259 253 238 199 186 164 156 154 146 147 141 153 165 176 161 145 135 139 134 133 128
236 241 239 237 237 216 227 236 238 237 239 229 227 206 210 219 233 237 243 257 244 233 257 244 222 192 174 165 161 162 153 151 160 162 179 180 161 131 139 139 138 139 130
233 233 236 238 233 213 225 232 232 227 229 222 212 206 207 222 236 239 247 255 237 252 226 241 212 188 176 165 166 163 154 147 159 165 177 168 142 139 142 147 144 133 137
229 231 235 238 214 206 215 226 222 234 221 214 206 199 211 235 246 242 245 231 233 245 230 220 209 187 178 168 162 160 157 149 160 169 172 151 142 139 143 146 138 141 141
220 221 211 222 212 211 206 213 223 209 221 213 198 193 210 223 228 234 229 192 226 263 210 225 142 154 166 175 162 157 158 149 154 171 154 144 140 144 142 140 142 146 128
215 206 208 212 211 210 212 212 215 211 205 193 162 135 175 183 237 185 163 164 112 137 203 172 141 173 198 183 142 162 155 149 156 154 147 141 141 136 137 139 146 137 134
217 208 207 191 201 198 203 205 209 196 199 191 190 159 168 147 107 119 143 133 119 142 175 179 168 159 156 141 156 164 159 154 160 149 142 134 133 136 137 144 152 152 145
216 205 200 197 196 205 204 197 206 198 179 193 222 192 175 157 146 150 139 125 135 150 147 167 150 148 138 138 150 155 151 158 152 142 136 133 141 147 149 161 153 146 149
201 199 202 190 201 199 203 194 194 203 192 179 204 211 199 136 161 153 128 111 124 134 147 148 140 138 137 145 160 156 156 151 139 138 141 150 146 154 159 153 149 157 153
158 168 175 185 199 195 192 196 187 204 207 196 194 165 144 135 116 145 122 132 97 135 122 128 137 135 137 138 141 137 137 124 131 142 149 151 155 155 154 150 158 160 163
179 166 166 178 167 186 193 192 191 205 214 224 203 188 130 141 152 168 135 126 124 95 134 124 134 143 133 129 123 125 123 120 123 144 150 149 146 149 150 154 163 168 171
170 149 166 171 167 193 196 182 189 200 206 219 196 180 137 113 98 139 142 127 123 94 120 131 114 114 128 127 133 122 121 125 134 138 129 133 135 142 148 162 168 170 175
148 154 139 135 159 162 166 179 188 190 191 210 147 121 121 186 189 168 148 147 114 93 74 144 122 126 114 129 130 122 127 127 125 129 133 131 137 143 150 155 167 168 159
151 146 132 148 162 146 152 151 155 158 164 161 136 146 141 124 140 142 145 140 125 110 106 118 124 136 121 122 123 125 126 125 128 129 130 132 144 147 139 151 156 149 171
148 146 142 151 147 129 139 143 142 153 150 139 147 140 139 140 123 126 131 114 111 124 101 55 64 121 122 121 117 118 125 123 119 114 126 143 146 146 138 155 165 159 211
149 158 158 154 120 123 124 147 141 143 143 147 143 142 129 135 120 122 141 137 120 115 116 103 98 128 117 123 116 111 116 112 129 136 135 149 148 140 156 165 132 86 354
146 159 164 148 123 124 133 136 133 144 145 137 127 129 126 127 132 113 93 125 113 135 130 130 125 120 116 115 111 114 121 134 129 137 144 136 137 141 123 81 65 66 53
138 146 159 139 136 137 137 125 120 127 129 122 128 127 131 127 130 143 124 116 120 109 131 130 124 110 114 122 109 103 111 96 98 128 139 117 96 88 97 94 90 75 68
128 140 142 129 128 127 126 126 127 126 123 120 132 128 128 146 144 142 138 129 123 115 124 130 126 113 109 119 114 122 116 101 113 119 73 72 81 82 82 86 83 83 76
124 130 131 123 121 122 129 130 123 118 120 114 106 97 108 109 101 113 128 129 125 121 133 124 126 119 127 130 132 126 117 139 109 118 106 103 108 97 91 86 85 79 79
129 133 130 127 127 129 128 113 126 120 121 121 113 109 111 104 87 87 84 86 112 131 135 134 136 136 134 112 130 146 153 154 126 126 114 106 103 90 82 76 86 81 76
127 131 133 134 122 130 133 130 136 130 128 128 129 115 101 114 121 110 94 96 84 77 80 131 134 145 149 159 152 160 157 144 118 134 123 109 110 103 100 94 80 84 78
115 108 125 127 129 131 143 146 156 135 127 131 125 124 126 129 121 126 108 108 104 77 59 97 132 153 158 152 160 146 132 115 116 132 138 124 131 114 109 98 79 82 83
122 108 115 118 115 134 154 145 145 128 133 129 127 136 136 127 111 110 110 112 113 102 71 70 72 86 105 113 137 138 148 147 129 133 163 131 152 135 128 128 121 106 83
122 118 111 109 113 128 150 124 104 113 114 116 116 110 92 117 107 92 139 145 135 123 120 118 106 94 104 86 56 173 161 160 134 143 156 134 158 158 166 156 124 93 91